This is the latest recevied weather packets stored in our database for station/object KH6DH-13. If no packets are shown the sender has not sent any weather packets the latest 10 day(s).
| Time | Temp. | Humidity | Pressure | Rain* | Wind** | Luminosity | Snow |
|---|---|---|---|---|---|---|---|
| 1777583176 | 26.67° C | - | - | 0 mm | 0.89 m/s, 124° | - | - |
| 1777582575 | 25.56° C | - | - | 0 mm | 1.79 m/s, 63° | - | - |
| 1777581974 | 25.56° C | - | - | 0 mm | 1.34 m/s, 167° | - | - |
| 1777581373 | 26.11° C | - | - | 0 mm | 1.79 m/s, 73° | - | - |
| 1777580772 | 25.56° C | - | - | 0 mm | 1.34 m/s, 118° | - | - |
| 1777580171 | 25.56° C | - | - | 0 mm | 2.24 m/s, 96° | - | - |
| 1777579570 | 25.56° C | - | - | 0 mm | 0.89 m/s, 115° | - | - |
| 1777578969 | 24.44° C | - | - | 0 mm | 1.34 m/s, 42° | - | - |
| 1777578363 | 24.44° C | - | - | 0 mm | 1.34 m/s, 304° | - | - |
| 1777577762 | 24.44° C | - | - | 0 mm | 1.34 m/s, 108° | - | - |
| 1777577161 | 24.44° C | - | - | 0.25 mm | 2.68 m/s, 359° | - | - |
| 1777576559 | 23.89° C | - | - | 0.25 mm | 0.89 m/s, 18° | - | - |
| 1777575958 | 23.33° C | - | - | 0.25 mm | 0.45 m/s, 89° | - | - |
| 1777575357 | 23.33° C | - | - | 0.25 mm | 2.68 m/s, 73° | - | - |
| 1777574756 | 23.89° C | - | - | 0.25 mm | 1.79 m/s, 80° | - | - |
| 1777574155 | 23.89° C | - | - | 0.25 mm | 2.68 m/s, 359° | - | - |
| 1777573554 | 23.33° C | - | - | 0 mm | 1.34 m/s, 359° | - | - |
| 1777572953 | 23.33° C | - | - | 0 mm | 0.89 m/s, 37° | - | - |
| 1777572352 | 23.89° C | - | - | 0 mm | 2.24 m/s, 103° | - | - |
| 1777571751 | 22.78° C | - | - | 0 mm | 4.02 m/s, 49° | - | - |
| 1777571150 | 22.78° C | - | - | 0 mm | 0.89 m/s, 269° | - | - |
| 1777570549 | 22.78° C | - | - | 0 mm | 0.89 m/s, 219° | - | - |
| 1777569948 | 22.22° C | - | - | 0 mm | 1.34 m/s, 203° | - | - |
| 1777569347 | 22.22° C | - | - | 0 mm | 1.79 m/s, 44° | - | - |
| 1777568746 | 22.22° C | - | - | 0 mm | 2.24 m/s, 65° | - | - |
* Rain latest hour (hover to see other rain measurements)
** Current wind speed in m/s (hover to see current wind gust speed)